Back to catalog

STARLINK-31311

AliveCommunicationsVLEO
NORAD 58948·PAYLOAD·🇺🇸 United States

Launched Feb 10, 2024 from Vandenberg Space Force Base

Loading…

Next Passes (next 24 hours)

TLE

FreshSource: CelesTrak SupGP

Epoch: Sep 14, 2026, 22:28 UTC

1 58948C 24027T   26257.93659722 -.00070466  00000+0 -20818-2 0  2576
2 58948  53.1577 147.3693 0001288  89.5904  80.6723 15.34428548    12

Track STARLINK-31311 in real time with AllMySat

Download on the App Store